This demonstration page uses our WeatherBlox Daily Observations layout. Learn more.

Left ArrowRight Arrow

44.8408, -93.29828

Hourly Observations for February 20, 2019

Temp ( °F °C ) Dew Point ( °F °C ) Humidity (%) Winds ( mph kmh ) Pressure ( in mb ) Visibility ( mi km ) Precip ( " mm )
12:53 am 00:53 Cloudy 17 -8.3 8 -13.3 68 68 ESE 10 17 30.20 1023 10 16 0.00 0.00
1:53 am 01:53 Cloudy 18 -7.8 8 -13.3 65 65 ESE 12 19 30.18 1022 10 16 0.00 0.00
2:53 am 02:53 Cloudy 19 -7.2 9 -12.8 65 65 SE 13 20 30.13 1020 8 13 0.00 0.00
3:08 am 03:08 Cloudy with Light Snow 18 -7.8 12 -11.1 77 77 ESE 13 20 30.13 1020 2 3 0.00 0.03
3:16 am 03:16 Cloudy with Light Snow 18 -7.8 13 -10.6 81 81 E 14 22 30.12 1020 2 3 0.00 0.03
3:30 am 03:30 Mostly Cloudy with Light Snow 18 -7.8 14 -10 84 84 E 12 19 30.11 1020 1 2 0.01 0.25
3:53 am 03:53 Cloudy with Light Snow 18 -7.8 15 -9.4 88 88 E 12 19 30.06 1018 1 2 0.02 0.51
4:11 am 04:11 Cloudy with Light Snow 18 -7.8 16 -8.9 92 92 E 12 19 30.07 1018 2 3 0.01 0.25
4:30 am 04:30 Cloudy with Light Snow 18 -7.8 16 -8.9 92 92 E 10 17 30.06 1018 1 2 0.02 0.51
4:53 am 04:53 Mostly Cloudy with Light Snow 19 -7.2 17 -8.3 92 92 E 9 15 30.02 1017 1 2 0.03 0.76
5:03 am 05:03 Mostly Cloudy with Light Snow 19 -7.2 17 -8.3 92 92 ENE 9 15 30.04 1017 1 1 0.01 0.25
5:15 am 05:15 Mostly Cloudy with Light Snow 19 -7.2 17 -8.3 92 92 ENE 10 17 30.03 1017 1 2 0.01 0.25
5:38 am 05:38 Mostly Cloudy with Light Snow 19 -7.2 18 -7.8 96 96 E 12 19 30.02 1017 1 1 0.03 0.76
5:45 am 05:45 Mostly Cloudy with Light Snow 20 -6.7 18 -7.8 92 92 E 10 17 30.02 1017 1 1 0.04 1.02
5:53 am 05:53 Mostly Cloudy with Light Snow 20 -6.7 18 -7.8 92 92 E 10 17 29.98 1015 1 1 0.05 1.27
6:44 am 06:44 Mostly Cloudy with Snow 20 -6.7 19 -7.2 96 96 E 14 22 29.96 1015 1 1 0.07 1.78
6:53 am 06:53 Mostly Cloudy with Snow 21 -6.1 19 -7.2 92 92 E 15 24 29.93 1013 1 1 0.08 2.03
7:35 am 07:35 Mostly Cloudy with Snow 21 -6.1 20 -6.7 96 96 E 12 19 29.92 1013 0 0 0.04 1.02
7:53 am 07:53 Mostly Cloudy with Snow 21 -6.1 20 -6.7 96 96 E 13 20 29.88 1012 0 0 0.07 1.78
8:53 am 08:53 Mostly Cloudy with Heavy Snow 21 -6.1 20 -6.7 96 96 E 16 26 29.83 1010 0 0 0.07 1.78
9:53 am 09:53 Mostly Cloudy with Heavy Snow 23 -5 22 -5.6 96 96 E 15 24 29.78 1008 0 0 0.07 1.78
10:12 am 10:12 Mostly Cloudy with Snow 23 -5 22 -5.6 96 96 ESE 12 19 29.79 1009 1 1 0.02 0.51
10:30 am 10:30 Mostly Cloudy with Snow 23 -5 22 -5.6 96 96 SE 8 13 29.80 1009 0 0 0.04 1.02
10:53 am 10:53 Mostly Cloudy with Snow 23 -5 22 -5.6 96 96 ESE 8 13 29.77 1008 0 0 0.08 2.03
11:09 am 11:09 Cloudy with Light Snow 23 -5 22 -5.6 96 96 ESE 14 22 29.77 1008 1 1 0.02 0.51
11:36 am 11:36 Mostly Cloudy with Snow 24 -4.4 23 -5 96 96 E 13 20 29.74 1007 0 0 0.03 0.76
11:53 am 11:53 Mostly Cloudy with Light Snow 24 -4.4 23 -5 96 96 E 9 15 29.71 1006 1 1 0.05 1.27
12:17 pm 12:17 Cloudy with Light Snow 25 -3.9 23 -5 92 92 ESE 13 20 29.70 1006 1 1 0.01 0.25
12:23 pm 12:23 Cloudy with Light Snow 25 -3.9 23 -5 92 92 E 10 17 29.70 1006 1 2 0.01 0.25
12:25 pm 12:25 Cloudy with Light Snow 25 -3.9 24 -4.4 96 96 E 12 19 29.70 1006 1 2 0.01 0.25
12:28 pm 12:28 Cloudy with Light Snow 26 -3.3 23 -5 88 88 E 13 20 29.69 1005 2 3 0.01 0.25
12:35 pm 12:35 Cloudy with Light Snow 26 -3.3 23 -5 88 88 ESE 13 20 29.69 1005 3 5 0.01 0.25
12:53 pm 12:53 Cloudy with Light Snow 26 -3.3 22 -5.6 84 84 ESE 12 19 29.66 1004 6 10 0.02 0.51
1:02 pm 13:02 Cloudy with Light Snow 26 -3.3 23 -5 88 88 ESE 13 20 29.67 1005 6 10 0.00 0.03
1:13 pm 13:13 Cloudy with Light Snow 26 -3.3 23 -5 88 88 ESE 15 24 29.67 1005 3 4 0.00 0.03
1:22 pm 13:22 Cloudy with Light Snow 26 -3.3 23 -5 88 88 ESE 13 20 29.66 1004 2 2 0.00 0.03
1:24 pm 13:24 Cloudy with Light Snow 26 -3.3 23 -5 88 88 ESE 10 17 29.66 1004 1 2 0.00 0.03
1:53 pm 13:53 Cloudy with Light Snow 26 -3.3 24 -4.4 92 92 ESE 10 17 29.63 1003 2 3 0.01 0.25
2:10 pm 14:10 Cloudy with Light Snow 26 -3.3 24 -4.4 92 92 ESE 9 15 29.64 1004 4 6 0.00 0.03
2:35 pm 14:35 Cloudy with Light Snow 27 -2.8 24 -4.4 89 89 SE 12 19 29.63 1004 2 3 0.00 0.03
2:53 pm 14:53 Cloudy with Light Snow 27 -2.8 25 -3.9 92 92 SSE 8 13 29.61 1003 2 3 0.01 0.25
3:21 pm 15:21 Cloudy with Light Snow 27 -2.8 25 -3.9 92 92 SSE 7 11 29.62 1003 2 3 0.00 0.03
3:40 pm 15:40 Cloudy with Light Snow 27 -2.8 25 -3.9 92 92 SSE 7 11 29.62 1003 1 1 0.01 0.25
3:53 pm 15:53 Cloudy with Light Snow 27 -2.8 26 -3.3 96 96 SE 6 9 29.60 1003 1 2 0.02 0.51
3:55 pm 15:55 Cloudy with Light Snow 27 -2.8 26 -3.3 96 96 SE 6 9 29.62 1003 2 3 0.00 0.03
4:24 pm 16:24 Cloudy with Light Snow 27 -2.8 25 -3.9 92 92 SSE 6 9 29.62 1003 2 3 0.00 0.03
4:33 pm 16:33 Cloudy with Light Snow 27 -2.8 26 -3.3 96 96 S 3 6 29.62 1003 2 3 0.00 0.03
4:53 pm 16:53 Cloudy with Light Snow 28 -2.2 25 -3.9 88 88 S 5 7 29.61 1003 4 6 0.00 0.03
5:02 pm 17:02 Cloudy with Light Snow 28 -2.2 25 -3.9 88 88 SSW 3 6 29.63 1003 3 4 0.00 0.03
5:47 pm 17:47 Cloudy with Light Snow 28 -2 27 -3 93 93 SW 7 11 29.64 1004 3 5 0.09 2.29
5:53 pm 17:53 Cloudy with Light Snow 28 -2.2 26 -3.3 92 92 SW 6 9 29.63 1003 3 5 0.09 2.29
6:05 pm 18:05 Cloudy with Light Snow 28 -2.2 26 -3.3 92 92 SW 6 9 29.65 1004 5 8 0.00 0.03
6:40 pm 18:40 Cloudy with Light Snow 27 -2.8 24 -4.4 89 89 WSW 12 19 29.67 1005 6 10 0.00 0.03
6:53 pm 18:53 Cloudy with Light Snow 27 -2.8 24 -4.4 89 89 W 9 15 29.65 1004 6 10 0.00 0.03
7:08 pm 19:08 Cloudy with Light Snow 27 -2.8 24 -4.4 89 89 WSW 10 17 29.68 1005 4 6 0.00 0.03
7:44 pm 19:44 Cloudy with Light Snow 26 -3.3 22 -5.6 84 84 WSW 17 28 29.70 1006 4 6 0.00 0.03
7:53 pm 19:53 Cloudy with Light Snow 25 -3.9 22 -5.6 88 88 WSW 12 19 29.68 1005 3 5 0.00 0.03
8:53 pm 20:53 Cloudy with Light Snow 23 -5 20 -6.7 88 88 WSW 12 19 29.72 1006 3 5 0.00 0.03
9:11 pm 21:11 Cloudy with Light Snow 23 -5 19 -7.2 85 85 WSW 14 22 29.75 1008 4 6 0.00 0.03
9:50 pm 21:50 Cloudy with Light Snow 19 -7 16 -9 86 86 WSW 14 22 29.78 1008 5 8 0.00 0.03
9:53 pm 21:53 Cloudy with Light Snow 20 -6.7 16 -8.9 85 85 WSW 13 20 29.75 1008 5 8 0.00 0.03
10:48 pm 22:48 Mostly Cloudy with Mist and Fog 18 -8 14 -10 86 86 WSW 12 19 29.82 1010 6 10 0.00 0.03
10:53 pm 22:53 Partly Cloudy 18 -7.8 13 -10.6 81 81 WSW 13 20 29.79 1009 7 11 0.00 0.03
11:53 pm 23:53 Mostly Clear 15 -9.4 11 -11.7 84 84 SW 12 19 29.83 1010 7 11 0.00 0.00

Powered by AerisWeather